This demonstration page uses our WeatherBlox Daily Observations layout. Learn more.

Left ArrowRight Arrow

34.16533, -84.80231

Hourly Observations for March 4, 2022

Temp ( °F °C ) Dew Point ( °F °C ) Humidity (%) Winds ( mph kmh ) Pressure ( in mb ) Visibility ( mi km ) Precip ( " mm )
12:15 am 00:15 Partly Cloudy 48 9 41 5 76 76 Calm 30.22 1023 10 16 0.00 0.00
12:35 am 00:35 Mostly Clear 50 10 37 3 62 62 S 3 6 30.22 1023 10 16 0.00 0.00
12:55 am 00:55 Clear 48 9 37 3 66 66 Calm 30.21 1023 10 16 0.00 0.00
1:15 am 01:15 Mostly Clear 48 9 39 4 71 71 Calm 30.21 1023 10 16 0.00 0.00
1:35 am 01:35 Mostly Clear 46 8 41 5 82 82 Calm 30.23 1024 10 16 0.00 0.00
1:55 am 01:55 Clear 46 8 41 5 82 82 Calm 30.23 1024 10 16 0.00 0.00
2:15 am 02:15 Clear 46 8 41 5 82 82 Calm 30.23 1024 10 16 0.00 0.00
2:35 am 02:35 Clear 45 7 39 4 81 81 Calm 30.23 1024 10 16 0.00 0.00
2:55 am 02:55 Clear 45 7 39 4 81 81 Calm 30.24 1024 10 16 0.00 0.00
3:15 am 03:15 Clear 46 8 39 4 76 76 Calm 30.24 1024 10 16 0.00 0.00
3:35 am 03:35 Clear 45 7 39 4 81 81 Calm 30.24 1024 10 16 0.00 0.00
3:55 am 03:55 Clear 43 6 39 4 87 87 Calm 30.25 1024 10 16 0.00 0.00
4:15 am 04:15 Clear 43 6 39 4 87 87 Calm 30.26 1025 10 16 0.00 0.00
4:35 am 04:35 Clear 43 6 39 4 87 87 Calm 30.26 1025 10 16 0.00 0.00
4:55 am 04:55 Clear 43 6 39 4 87 87 Calm 30.27 1025 10 16 0.00 0.00
5:15 am 05:15 Clear 43 6 39 4 87 87 Calm 30.27 1025 10 16 0.00 0.00
5:35 am 05:35 Clear 43 6 39 4 87 87 Calm 30.28 1025 10 16 0.00 0.00
5:55 am 05:55 Clear 43 6 39 4 87 87 Calm 30.28 1025 10 16 0.00 0.00
6:15 am 06:15 Clear 41 5 39 4 93 93 Calm 30.29 1026 10 16 0.00 0.00
6:35 am 06:35 Clear 41 5 39 4 93 93 Calm 30.30 1026 10 16 0.00 0.00
6:55 am 06:55 Clear 41 5 39 4 93 93 Calm 30.30 1026 10 16 0.00 0.00
7:15 am 07:15 Sunny 41 5 39 4 93 93 Calm 30.31 1027 10 16 0.00 0.00
7:35 am 07:35 Sunny 41 5 39 4 93 93 Calm 30.32 1027 10 16 0.00 0.00
7:55 am 07:55 Sunny 41 5 39 4 93 93 E 5 7 30.34 1028 10 16 0.00 0.00
8:15 am 08:15 Sunny 43 6 41 5 93 93 Calm 30.35 1028 10 16 0.00 0.00
8:35 am 08:35 Sunny 46 8 41 5 82 82 Calm 30.36 1028 10 16 0.00 0.00
8:55 am 08:55 Sunny 50 10 43 6 76 76 Calm 30.35 1028 10 16 0.00 0.00
9:15 am 09:15 Sunny 54 12 43 6 67 67 ENE 5 7 30.34 1028 10 16 0.00 0.00
9:35 am 09:35 Sunny 59 15 43 6 55 55 E 6 9 30.35 1028 10 16 0.00 0.00
9:55 am 09:55 Sunny 63 17 41 5 45 45 E 9 15 30.33 1027 10 16 0.00 0.00
10:15 am 10:15 Sunny 64 18 39 4 40 40 E 12 19 30.33 1027 10 16 0.00 0.00
10:35 am 10:35 Sunny 66 19 41 5 40 40 E 8 13 30.32 1027 10 16 0.00 0.00
10:55 am 10:55 Sunny 68 20 41 5 38 38 E 13 20 30.32 1027 10 16 0.00 0.00
11:15 am 11:15 Sunny 70 21 39 4 33 33 E 10 17 30.32 1027 10 16 0.00 0.00
11:35 am 11:35 Sunny 72 22 39 4 31 31 ESE 12 19 30.31 1026 10 16 0.00 0.00
11:55 am 11:55 Sunny 72 22 39 4 31 31 E 10 17 30.31 1026 10 16 0.00 0.00
12:15 pm 12:15 Sunny 73 23 39 4 29 29 VRB 6 9 30.30 1026 10 16 0.00 0.00
12:35 pm 12:35 Sunny 75 24 39 4 27 27 ESE 8 13 30.28 1025 10 16 0.00 0.00
12:55 pm 12:55 Sunny 73 23 39 4 29 29 VRB 6 9 30.28 1026 10 16 0.00 0.00
1:15 pm 13:15 Sunny 73 23 39 4 29 29 E 12 19 30.27 1025 10 16 0.00 0.00
1:35 pm 13:35 Sunny 75 24 39 4 27 27 E 8 13 30.26 1025 10 16 0.00 0.00
1:55 pm 13:55 Sunny 75 24 39 4 27 27 E 8 13 30.25 1024 10 16 0.00 0.00
2:15 pm 14:15 Sunny 77 25 39 4 26 26 E 9 15 30.24 1024 10 16 0.00 0.00
2:35 pm 14:35 Sunny 77 25 39 4 26 26 VRB 6 9 30.23 1024 10 16 0.00 0.00
2:55 pm 14:55 Sunny 77 25 39 4 26 26 E 8 13 30.22 1023 10 16 0.00 0.00
3:15 pm 15:15 Sunny 77 25 39 4 26 26 E 9 15 30.22 1023 10 16 0.00 0.00
3:35 pm 15:35 Sunny 77 25 39 4 26 26 VRB 7 11 30.22 1023 10 16 0.00 0.00
3:55 pm 15:55 Sunny 77 25 39 4 26 26 E 8 13 30.22 1023 9 14 0.00 0.00
4:15 pm 16:15 Sunny 79 26 37 3 23 23 SSE 7 11 30.21 1023 10 16 0.00 0.00
4:35 pm 16:35 Sunny 79 26 39 4 24 24 SSE 8 13 30.21 1023 10 16 0.00 0.00
4:55 pm 16:55 Sunny 79 26 39 4 24 24 VRB 5 7 30.21 1023 10 16 0.00 0.00
5:15 pm 17:15 Sunny 79 26 39 4 24 24 SE 7 11 30.21 1023 10 16 0.00 0.00
5:35 pm 17:35 Sunny 77 25 39 4 26 26 VRB 6 9 30.21 1023 10 16 0.00 0.00
5:55 pm 17:55 Sunny 77 25 41 5 28 28 ESE 7 11 30.20 1023 10 16 0.00 0.00
6:15 pm 18:15 Sunny 75 24 41 5 29 29 VRB 5 7 30.21 1023 10 16 0.00 0.00
6:35 pm 18:35 Sunny 73 23 41 5 31 31 ESE 5 7 30.21 1023 9 14 0.00 0.00
6:55 pm 18:55 Clear 68 20 45 7 43 43 E 6 9 30.23 1024 10 16 0.00 0.00
7:15 pm 19:15 Partly Cloudy 68 20 43 6 40 40 E 6 9 30.23 1024 10 16 0.00 0.00
7:35 pm 19:35 Partly Cloudy 70 21 43 6 38 38 E 7 11 30.24 1024 10 16 0.00 0.00
7:55 pm 19:55 Mostly Cloudy 68 20 43 6 40 40 E 7 11 30.24 1024 10 16 0.00 0.00
8:15 pm 20:15 Mostly Cloudy 68 20 45 7 43 43 E 8 13 30.25 1024 10 16 0.00 0.00
8:35 pm 20:35 Mostly Cloudy 68 20 45 7 43 43 E 9 15 30.25 1024 10 16 0.00 0.00
8:55 pm 20:55 Cloudy 68 20 45 7 43 43 E 7 11 30.26 1025 10 16 0.00 0.00
9:15 pm 21:15 Cloudy 66 19 45 7 46 46 E 8 13 30.27 1025 10 16 0.00 0.00
9:35 pm 21:35 Cloudy 66 19 45 7 46 46 VRB 6 9 30.27 1025 10 16 0.00 0.00
9:55 pm 21:55 Cloudy 66 19 45 7 46 46 E 6 9 30.28 1026 10 16 0.00 0.00
10:15 pm 22:15 Cloudy 64 18 45 7 49 49 E 8 13 30.29 1026 10 16 0.00 0.00
10:35 pm 22:35 Cloudy 64 18 45 7 49 49 E 8 13 30.29 1026 10 16 0.00 0.00
10:55 pm 22:55 Cloudy 64 18 43 6 46 46 E 8 13 30.29 1026 10 16 0.00 0.00
11:15 pm 23:15 Cloudy 63 17 43 6 49 49 E 8 13 30.29 1026 10 16 0.00 0.00
11:35 pm 23:35 Cloudy 63 17 43 6 49 49 VRB 7 11 30.29 1026 10 16 0.00 0.00
11:55 pm 23:55 Cloudy 61 16 43 6 52 52 VRB 7 11 30.29 1026 10 16 0.00 0.00

Powered by AerisWeather